EW5390 Weather Reports


Display with metric or nautical units.
time (UTC)temp
F
wind
direction
speed
MPH
gust
MPH
rain 1hr
in
rain 24hr
in
rain mn
in
humidity
%
barometer
mb
20260901192553 87 0 0.0 1.0 0.00 0.00 0.00 76 1015.1
20260901192054 87 0 0.0 3.0 0.00 0.00 0.00 75 1015.1
20260901191615 87 0 0.0 3.0 0.00 0.00 0.00 76 1015.1
20260901191053 87 314 1.0 3.0 0.00 0.00 0.00 78 1015.1
20260901190554 87 0 0.0 3.0 0.00 0.00 0.00 77 1015.0
20260901190124 87 344 0.0 3.0 0.00 0.00 0.00 78 1015.0
20260901185555 87 0 1.0 3.0 0.00 0.00 0.00 77 1015.0
20260901185051 87 319 0.0 1.0 0.00 0.00 0.00 78 1015.1
20260901184602 87 319 0.0 4.0 0.00 0.00 0.00 78 1015.1
20260901184052 86 0 2.0 4.0 0.00 0.00 0.00 77 1015.2
20260901183553 86 319 0.0 2.0 0.00 0.00 0.00 78 1015.1
20260901183106 85 319 0.0 2.0 0.00 0.00 0.00 82 1015.2
20260901182552 85 318 0.0 0.0 0.00 0.00 0.00 83 1015.2
20260901182052 84 0 0.0 0.0 0.00 0.00 0.00 85 1015.3
20260901181600 84 0 0.0 0.0 0.00 0.00 0.00 84 1015.3
20260901181051 84 0 0.0 0.0 0.00 0.00 0.00 85 1015.3
20260901180551 84 0 0.0 0.0 0.00 0.00 0.00 84 1015.3
20260901180058 84 318 0.0 0.0 0.00 0.00 0.00 83 1015.2
20260901175555 85 0 0.0 0.0 0.00 0.00 0.00 81 1015.3
20260901175052 85 0 0.0 0.0 0.00 0.00 0.00 81 1015.3
20260901174602 86 0 0.0 0.0 0.00 0.00 0.00 80 1015.3
20260901174052 86 0 0.0 1.0 0.00 0.00 0.00 78 1015.3
20260901173551 86 318 0.0 1.0 0.00 0.00 0.00 78 1015.4
20260901173102 86 0 0.0 0.0 0.00 0.00 0.00 78 1015.3
20260901172551 86 0 0.0 0.0 0.00 0.00 0.00 77 1015.3
20260901172059 86 0 0.0 0.0 0.00 0.00 0.00 80 1015.4
20260901171636 86 0 0.0 0.0 0.00 0.00 0.00 79 1015.5
20260901171052 87 0 0.0 1.0 0.00 0.00 0.00 81 1015.5
20260901170552 87 0 0.0 1.0 0.00 0.00 0.00 79 1015.6
20260901170107 87 319 0.0 2.0 0.00 0.00 0.00 80 1015.5
20260901165553 87 0 0.0 3.0 0.00 0.00 0.00 79 1015.6
20260901165056 87 316 0.0 3.0 0.00 0.00 0.00 78 1015.7
20260901164613 87 230 0.0 2.0 0.00 0.00 0.00 77 1015.7
20260901164052 87 229 0.0 2.0 0.00 0.00 0.00 79 1015.8
20260901163557 87 200 1.0 2.0 0.00 0.00 0.00 79 1015.7
20260901163115 86 321 0.0 2.0 0.00 0.00 0.00 79 1015.8
20260901162551 86 322 0.0 5.0 0.00 0.00 0.00 80 1015.9
20260901162054 86 0 1.0 5.0 0.00 0.00 0.00 79 1015.9
20260901161608 86 340 1.0 4.0 0.00 0.00 0.00 80 1015.9
20260901161051 86 322 2.0 4.0 0.00 0.00 0.00 80 1015.9
20260901160555 86 317 1.0 3.0 0.00 0.00 0.00 81 1015.9
20260901155556 85 317 1.0 4.0 0.00 0.00 0.00 81 1016.1
20260901155057 85 320 1.0 4.0 0.00 0.00 0.00 82 1016.1
20260901154558 84 323 1.0 5.0 0.00 0.00 0.00 83 1016.2
20260901154053 84 319 1.0 5.0 0.00 0.00 0.00 83 1016.2
20260901153554 84 311 0.0 2.0 0.00 0.00 0.00 84 1016.2
20260901153100 84 311 0.0 2.0 0.00 0.00 0.00 84 1016.3
20260901152554 84 311 0.0 2.0 0.00 0.00 0.00 85 1016.2
20260901152054 84 0 1.0 2.0 0.00 0.00 0.00 85 1016.3
20260901151607 84 0 0.0 2.0 0.00 0.00 0.00 85 1016.3
20260901151055 84 298 1.0 2.0 0.00 0.00 0.00 84 1016.3
20260901150553 84 298 0.0 1.0 0.00 0.00 0.00 85 1016.3
20260901150057 84 0 0.0 1.0 0.00 0.00 0.00 85 1016.3
20260901145554 84 0 0.0 2.0 0.00 0.00 0.00 85 1016.4
20260901145055 84 298 0.0 2.0 0.00 0.00 0.00 84 1016.4
20260901144603 84 289 0.0 2.0 0.00 0.00 0.00 85 1016.3
20260901144053 83 0 1.0 2.0 0.00 0.00 0.00 84 1016.3
20260901143553 84 323 0.0 3.0 0.00 0.00 0.00 84 1016.2
20260901143106 84 333 1.0 3.0 0.00 0.00 0.00 84 1016.2
20260901142554 84 0 0.0 2.0 0.00 0.00 0.00 84 1016.2
20260901142054 84 245 1.0 2.0 0.00 0.00 0.00 84 1016.2
20260901141559 84 283 0.0 2.0 0.00 0.00 0.00 84 1016.3
20260901141054 84 272 0.0 2.0 0.00 0.00 0.00 85 1016.3
20260901140553 83 229 0.0 2.0 0.00 0.00 0.00 86 1016.3
20260901140105 82 288 0.0 1.0 0.00 0.00 0.00 86 1016.4
20260901135554 82 0 0.0 1.0 0.00 0.00 0.00 89 1016.4
20260901135054 81 247 0.0 1.0 0.00 0.00 0.00 90 1016.5
20260901134605 80 247 0.0 1.0 0.00 0.00 0.00 91 1016.5
20260901134055 80 266 0.0 1.0 0.00 0.00 0.00 92 1016.6
20260901133553 80 266 0.0 1.0 0.00 0.00 0.00 93 1016.6
20260901133108 79 276 0.0 1.0 0.00 0.00 0.00 94 1016.8
20260901132556 78 174 0.0 1.0 0.00 0.00 0.00 95 1016.7
20260901132054 78 0 0.0 1.0 0.00 0.00 0.00 96 1016.7
20260901131602 77 174 0.0 1.0 0.00 0.00 0.00 96 1016.9
20260901131054 77 0 0.0 0.0 0.00 0.00 0.00 97 1016.9
20260901130554 76 0 0.0 0.0 0.00 0.00 0.00 97 1017.0
20260901130107 76 0 0.0 0.0 0.00 0.00 0.00 98 1017.0
20260901125553 76 0 0.0 1.0 0.00 0.00 0.00 98 1017.1
20260901125053 75 0 0.0 1.0 0.00 0.00 0.00 98 1017.1
20260901124603 75 0 0.0 1.0 0.00 0.00 0.00 98 1017.2
20260901124053 75 174 0.0 0.0 0.00 0.00 0.00 98 1017.2
20260901123553 75 0 0.0 0.0 0.00 0.00 0.00 98 1017.1
20260901123117 74 0 0.0 0.0 0.00 0.00 0.00 98 1017.1
20260901122552 74 0 0.0 1.0 0.00 0.00 0.00 98 1017.1
20260901122055 74 0 0.0 1.0 0.00 0.00 0.00 98 1017.1
20260901121605 74 174 0.0 0.0 0.00 0.00 0.00 98 1017.2
20260901121055 74 0 0.0 0.0 0.00 0.00 0.00 98 1017.2
20260901120554 74 0 0.0 0.0 0.00 0.00 0.00 98 1017.1
20260901120103 73 0 0.0 0.0 0.00 0.00 0.00 98 1017.2
20260901115553 73 0 0.0 0.0 0.00 0.00 0.00 98 1017.3
20260901115053 73 0 0.0 0.0 0.00 0.00 0.00 98 1017.3
20260901114603 73 0 0.0 0.0 0.00 0.00 0.00 97 1017.1
20260901114057 73 0 0.0 0.0 0.00 0.00 0.00 97 1017.1
20260901113553 73 0 0.0 0.0 0.00 0.00 0.00 97 1017.0
20260901113104 73 0 0.0 0.0 0.00 0.00 0.00 97 1017.1
20260901112552 72 0 0.0 0.0 0.00 0.00 0.00 97 1017.1
20260901112054 73 0 0.0 0.0 0.00 0.00 0.00 97 1017.2
20260901111612 72 0 0.0 1.0 0.00 0.00 0.00 97 1017.2
20260901111054 72 0 0.0 1.0 0.00 0.00 0.00 97 1017.1
20260901110553 72 108 0.0 1.0 0.00 0.00 0.00 97 1017.2
20260901110104 72 0 0.0 1.0 0.00 0.00 0.00 97 1017.3
20260901105554 72 108 0.0 0.0 0.00 0.00 0.00 97 1017.2
20260901105053 72 0 0.0 0.0 0.00 0.00 0.00 97 1017.0
20260901104606 72 0 0.0 0.0 0.00 0.00 0.00 97 1016.6
20260901104053 72 0 0.0 0.0 0.00 0.00 0.00 97 1016.6
20260901103552 72 0 0.0 0.0 0.00 0.00 0.00 97 1016.5
20260901103100 72 0 0.0 0.0 0.00 0.00 0.00 97 1016.4
20260901102553 72 0 0.0 0.0 0.00 0.00 0.00 97 1016.5
20260901102054 72 0 0.0 0.0 0.00 0.00 0.00 97 1016.4
20260901101606 72 0 0.0 0.0 0.00 0.00 0.00 97 1016.4
20260901101052 72 0 0.0 0.0 0.00 0.00 0.00 97 1016.4
20260901100555 72 0 0.0 0.0 0.00 0.00 0.00 97 1016.4
20260901100100 72 0 0.0 0.0 0.00 0.00 0.00 97 1016.4
20260901095553 72 0 0.0 0.0 0.00 0.00 0.00 97 1016.6
20260901095052 72 0 0.0 0.0 0.00 0.00 0.00 97 1016.6
20260901094602 72 0 0.0 0.0 0.00 0.00 0.00 97 1016.6
20260901094055 72 0 0.0 0.0 0.00 0.00 0.00 97 1016.7
20260901093551 72 0 0.0 0.0 0.00 0.00 0.00 97 1016.7
20260901093103 72 0 0.0 0.0 0.00 0.00 0.00 97 1016.7
20260901092553 72 0 0.0 0.0 0.00 0.00 0.00 97 1016.6
20260901092055 72 0 0.0 0.0 0.00 0.00 0.00 97 1016.7
20260901091608 72 0 0.0 0.0 0.00 0.00 0.00 97 1016.7
20260901091051 72 0 0.0 0.0 0.00 0.00 0.00 97 1016.6
20260901090557 72 0 0.0 0.0 0.00 0.00 0.00 96 1016.6
20260901090116 72 0 0.0 0.0 0.00 0.00 0.00 96 1016.7
20260901085551 72 0 0.0 0.0 0.00 0.00 0.00 96 1016.7
20260901085051 72 0 0.0 0.0 0.00 0.00 0.00 96 1016.8
20260901084608 72 0 0.0 0.0 0.00 0.00 0.00 96 1016.7
20260901084054 72 0 0.0 0.0 0.00 0.00 0.00 96 1016.7
20260901083555 72 0 0.0 0.0 0.00 0.00 0.00 96 1016.7
20260901083121 72 0 0.0 0.0 0.00 0.00 0.00 96 1016.8
20260901082553 72 0 0.0 0.0 0.00 0.00 0.00 96 1016.8
20260901082053 72 0 0.0 0.0 0.00 0.00 0.00 96 1016.8
20260901081606 72 0 0.0 0.0 0.00 0.00 0.00 96 1016.9
20260901081051 72 0 0.0 0.0 0.00 0.00 0.00 96 1016.8
20260901080551 72 0 0.0 0.0 0.00 0.00 0.00 96 1016.8
20260901080114 72 0 0.0 0.0 0.00 0.00 0.00 96 1016.9
20260901075555 72 0 0.0 0.0 0.00 0.00 0.00 96 1016.8
20260901075052 72 0 0.0 0.0 0.00 0.00 0.00 96 1017.0
20260901074604 72 0 0.0 0.0 0.00 0.00 0.00 96 1017.0
20260901074051 72 0 0.0 0.0 0.00 0.00 0.00 96 1016.9
20260901073554 72 0 0.0 0.0 0.00 0.00 0.00 96 1017.0
20260901073110 72 0 0.0 0.0 0.00 0.00 0.00 96 1017.0
20260901072551 72 0 0.0 0.0 0.00 0.00 0.00 96 1017.0
20260901072053 72 0 0.0 0.0 0.00 0.00 0.00 96 1017.0
20260901071609 72 0 0.0 0.0 0.00 0.00 0.00 96 1017.1
20260901071055 72 0 0.0 0.0 0.00 0.00 0.00 96 1017.0
20260901070551 72 0 0.0 0.0 0.00 0.00 0.00 96 1017.0
20260901070107 72 0 0.0 0.0 0.00 0.00 0.00 96 1017.0
20260901065556 72 0 0.0 0.0 0.00 0.00 0.00 96 1017.1
20260901065053 72 0 0.0 0.0 0.00 0.00 0.00 96 1017.2
20260901064618 72 0 0.0 0.0 0.00 0.00 0.00 96 1017.2
20260901064054 72 0 0.0 0.0 0.00 0.00 0.00 96 1017.2
20260901063553 72 0 0.0 0.0 0.00 0.00 0.00 96 1017.2
20260901063137 72 0 0.0 0.0 0.00 0.00 0.00 96 1017.1
20260901062552 72 0 0.0 0.0 0.00 0.00 0.00 96 1017.2
20260901062052 72 0 0.0 0.0 0.00 0.00 0.00 96 1017.2
20260901061606 72 0 0.0 0.0 0.00 0.00 0.00 96 1017.3
20260901061054 72 0 0.0 0.0 0.00 0.00 0.00 96 1017.4
20260901060559 72 0 0.0 0.0 0.00 0.00 0.00 96 1017.4
20260901060100 72 0 0.0 0.0 0.00 0.00 0.00 96 1017.6
20260901055554 72 0 0.0 0.0 0.00 0.00 0.00 96 1017.6
20260901055054 73 0 0.0 0.0 0.00 0.00 0.00 96 1017.6
20260901054604 73 0 0.0 0.0 0.00 0.00 0.00 96 1017.7
20260901054055 73 0 0.0 0.0 0.00 0.00 0.00 96 1017.8
20260901053553 73 0 0.0 0.0 0.00 0.00 0.00 96 1017.9
20260901053116 73 0 0.0 0.0 0.00 0.00 0.00 96 1017.9
20260901052554 73 0 0.0 0.0 0.00 0.00 0.00 96 1018.0
20260901052054 73 0 0.0 0.0 0.00 0.00 0.00 96 1018.0
20260901051559 73 0 0.0 0.0 0.00 0.00 0.00 95 1018.2
20260901051054 73 0 0.0 0.0 0.00 0.00 0.00 95 1018.2
20260901050552 73 0 0.0 0.0 0.00 0.00 0.00 95 1018.3
20260901050105 73 0 0.0 0.0 0.00 0.00 0.00 95 1018.3
20260901045554 73 0 0.0 0.0 0.00 0.00 0.00 95 1018.3
20260901045052 73 0 0.0 0.0 0.00 0.00 0.00 95 1018.3
20260901044559 74 0 0.0 0.0 0.00 0.00 0.00 95 1018.3
20260901044055 74 0 0.0 0.0 0.00 0.00 0.00 95 1018.3
20260901043553 74 0 0.0 0.0 0.00 0.00 0.00 95 1018.4
20260901043059 74 0 0.0 0.0 0.00 0.00 0.00 95 1018.3
20260901042557 74 0 0.0 0.0 0.00 0.00 0.00 95 1018.4
20260901042056 74 0 0.0 0.0 0.00 0.00 0.00 95 1018.4
20260901041611 74 0 0.0 0.0 0.00 0.00 0.00 95 1018.4
20260901041051 74 0 0.0 0.0 0.00 0.00 0.00 95 1018.4
20260901040552 74 0 0.0 0.0 0.00 0.00 0.00 95 1018.3
20260901040104 74 0 0.0 0.0 0.00 0.00 0.00 95 1018.2
20260901035553 74 0 0.0 0.0 0.00 0.00 0.00 95 1018.3
20260901035054 74 0 0.0 0.0 0.00 0.00 0.00 95 1018.3
20260901034603 74 0 0.0 0.0 0.00 0.00 0.00 95 1018.2
20260901034055 74 0 0.0 0.0 0.00 0.00 0.00 95 1018.2
20260901033553 74 0 0.0 0.0 0.00 0.00 0.00 95 1018.2
20260901033102 74 0 0.0 1.0 0.00 0.00 0.00 95 1018.1
20260901032555 74 0 0.0 1.0 0.00 0.00 0.00 95 1018.1
20260901032052 74 0 0.0 0.0 0.00 0.00 0.00 95 1018.1
20260901031601 74 0 0.0 0.0 0.00 0.00 0.00 95 1018.2
20260901031054 74 0 0.0 0.0 0.00 0.00 0.00 94 1018.2
20260901030554 74 0 0.0 0.0 0.00 0.00 0.00 94 1018.2
20260901030100 74 0 0.0 0.0 0.00 0.00 0.00 94 1018.2
20260901025554 74 0 0.0 0.0 0.00 0.00 0.00 94 1018.2
20260901025054 74 0 0.0 0.0 0.00 0.00 0.00 94 1018.3
20260901024604 74 0 0.0 0.0 0.00 0.00 0.00 94 1018.3
20260901024054 74 0 0.0 0.0 0.00 0.00 0.00 94 1018.2
20260901023553 74 0 0.0 1.0 0.00 0.00 0.00 94 1018.2
20260901023107 74 0 0.0 1.0 0.00 0.00 0.00 94 1018.2
20260901022550 74 0 0.0 1.0 0.00 0.00 0.00 94 1018.2
20260901022051 74 0 0.0 0.0 0.00 0.00 0.00 94 1018.3
20260901021603 74 0 0.0 0.0 0.00 0.00 0.00 94 1018.4
20260901021056 74 0 0.0 0.0 0.00 0.00 0.00 94 1018.4
20260901020552 74 0 0.0 0.0 0.00 0.00 0.00 94 1018.4
20260901015551 74 0 0.0 0.0 0.00 0.00 0.00 94 1018.3
20260901015052 74 0 0.0 0.0 0.00 0.00 0.00 94 1018.4
20260901014603 74 0 0.0 0.0 0.00 0.00 0.00 94 1018.4
20260901014058 74 0 0.0 0.0 0.00 0.00 0.00 93 1018.5
20260901013554 74 0 0.0 0.0 0.00 0.00 0.00 93 1018.4
20260901013109 74 0 0.0 0.0 0.00 0.00 0.00 93 1018.4
20260901012553 74 0 0.0 0.0 0.00 0.00 0.00 93 1018.4
20260901012054 75 0 0.0 0.0 0.00 0.00 0.00 93 1018.4
20260901011604 75 0 0.0 0.0 0.00 0.00 0.00 93 1018.4
20260901011054 75 0 0.0 1.0 0.00 0.00 0.00 93 1018.4
20260901010554 75 0 0.0 1.0 0.00 0.00 0.00 93 1018.4
20260901010100 75 0 0.0 1.0 0.00 0.00 0.00 93 1018.5
20260901005551 75 0 0.0 0.0 0.00 0.00 0.00 93 1018.5
20260901005054 75 0 0.0 0.0 0.00 0.00 0.00 92 1018.4
20260901004610 75 0 0.0 0.0 0.00 0.00 0.00 92 1018.4
20260901004053 75 0 0.0 1.0 0.00 0.00 0.00 92 1018.4
20260901003554 76 0 0.0 1.0 0.00 0.00 0.00 92 1018.4
20260901003121 76 0 0.0 0.0 0.00 0.00 0.00 92 1018.3
20260901002554 76 0 0.0 0.0 0.00 0.00 0.00 92 1018.3
20260901002055 76 0 0.0 0.0 0.00 0.00 0.00 92 1018.2
20260901001609 76 0 0.0 0.0 0.00 0.00 0.00 92 1018.1
20260901001054 76 0 0.0 0.0 0.00 0.00 0.00 91 1018.0
20260901000554 76 0 0.0 0.0 0.00 0.00 0.00 91 1018.0
20260901000116 76 0 0.0 0.0 0.00 0.00 0.00 91 1018.0
20260831235551 76 0 0.0 0.0 0.00 0.00 0.00 91 1018.1
20260831235103 77 0 0.0 0.0 0.00 0.00 0.00 91 1018.2
20260831234600 77 0 0.0 1.0 0.00 0.00 0.00 90 1018.2
20260831234056 77 0 0.0 1.0 0.00 0.00 0.00 90 1018.3
20260831233554 77 0 0.0 1.0 0.00 0.00 0.00 90 1018.3
20260831233101 77 0 0.0 0.0 0.00 0.00 0.00 90 1018.3
20260831232554 77 0 0.0 0.0 0.00 0.00 0.00 90 1018.3
20260831232054 78 0 0.0 0.0 0.00 0.00 0.00 89 1018.4
20260831231611 78 0 0.0 0.0 0.00 0.00 0.00 89 1018.5
20260831231056 78 0 0.0 0.0 0.00 0.00 0.00 89 1018.5
20260831230554 78 0 0.0 0.0 0.00 0.00 0.00 88 1018.5
20260831230106 78 0 0.0 0.0 0.00 0.00 0.00 87 1018.7
20260831225551 78 0 0.0 0.0 0.00 0.00 0.00 86 1018.7
20260831225051 78 0 0.0 1.0 0.00 0.00 0.00 86 1018.7
20260831224605 79 0 0.0 1.0 0.00 0.00 0.00 85 1018.7
20260831224054 79 108 0.0 1.0 0.00 0.00 0.00 84 1018.7
20260831223555 79 0 0.0 1.0 0.00 0.00 0.00 84 1018.7
20260831223108 79 0 0.0 1.0 0.00 0.00 0.00 84 1018.7
20260831222553 79 0 0.0 1.0 0.00 0.00 0.00 83 1018.7
20260831222053 79 0 0.0 1.0 0.00 0.00 0.00 83 1018.7
20260831221604 79 0 0.0 0.0 0.00 0.00 0.00 82 1018.7
20260831221051 79 0 0.0 0.0 0.00 0.00 0.00 82 1018.7
20260831220554 80 0 0.0 0.0 0.00 0.00 0.00 83 1018.8
20260831220106 80 0 0.0 0.0 0.00 0.00 0.00 82 1018.9
20260831215551 80 0 0.0 0.0 0.00 0.00 0.00 82 1019.0
20260831215054 80 0 0.0 2.0 0.00 0.00 0.00 81 1019.1
20260831214559 80 0 0.0 2.0 0.00 0.00 0.00 81 1019.1
20260831214054 80 72 0.0 2.0 0.00 0.00 0.00 81 1019.1
20260831213554 80 0 0.0 1.0 0.00 0.00 0.00 81 1019.1
20260831213100 80 131 0.0 3.0 0.00 0.00 0.00 80 1019.1
20260831212555 80 0 0.0 3.0 0.00 0.00 0.00 81 1018.9
20260831212056 80 0 0.0 1.0 0.00 0.00 0.00 80 1018.9
20260831211621 80 198 0.0 1.0 0.00 0.00 0.00 79 1018.8
20260831211051 80 0 0.0 1.0 0.00 0.00 0.00 78 1018.7
20260831210554 80 0 0.0 4.0 0.00 0.00 0.00 80 1018.7
20260831210100 80 0 0.0 5.0 0.00 0.00 0.00 79 1018.7
20260831205555 80 53 2.0 5.0 0.00 0.00 0.00 78 1018.6
20260831205055 80 0 1.0 6.0 0.00 0.00 0.00 79 1018.6
20260831204604 80 56 4.0 6.0 0.00 0.00 0.00 80 1018.5
20260831204054 80 69 2.0 7.0 0.00 0.00 0.00 80 1018.5
20260831203617 80 59 2.0 7.0 0.00 0.00 0.00 83 1018.5
20260831203106 80 63 5.0 7.0 0.00 0.00 0.00 81 1018.5
20260831202550 80 53 1.0 6.0 0.00 0.00 0.00 83 1018.5
20260831202056 80 66 4.0 6.0 0.00 0.00 0.00 83 1018.5
20260831201601 80 51 4.0 6.0 0.00 0.00 0.00 82 1018.5
20260831201055 80 49 2.0 4.0 0.00 0.00 0.00 83 1018.6
20260831200554 81 57 1.0 6.0 0.00 0.00 0.00 84 1018.6
20260831195556 81 51 5.0 6.0 0.00 0.00 0.00 82 1018.6
20260831195054 81 58 2.0 6.0 0.00 0.00 0.00 82 1018.6
20260831194643 81 63 1.0 5.0 0.00 0.00 0.00 83 1018.6
20260831194051 81 53 2.0 5.0 0.00 0.00 0.00 83 1018.7
20260831193555 81 58 3.0 5.0 0.00 0.00 0.00 84 1018.6
20260831193105 81 65 3.0 5.0 0.00 0.00 0.00 84 1018.8